Wind_Speed
7 5 1 4 9 12 19 21 27 25 36 40 47 47 35 14 19 17 21 23 28 48 33 31 39 36 35 29 27 23 19 14 8 5 6 7 8 12 10 9 12 15 21 27 30 31 24 16 20
9 3 2 5 15 14 14 22 29 30 35 41 48 52 31 15 14 26 27 23 22 47 40 26 40 37 32 29 25 21 14 12 7 7 9 5 7 10 8 10 16 17 24 29 35 32 18 23 26
8 1 7 8 5 10 18 23 26 32 37 42 48 53 32 17 7 28 24 21 21 44 50 33 37 34 32 29 25 21 16 9 6 9 3 4 8 7 7 11 21 21 32 34 37 27 15 23 23
8 1 11 8 13 15 22 27 31 32 38 44 49 47 32 20 2 21 24 23 18 31 44 40 34 30 32 28 26 22 19 14 9 7 4 3 9 6 10 19 22 30 34 35 23 14 21 24 21
8 4 7 1 24 15 26 27 30 33 37 43 48 44 32 23 7 9 18 17 17 28 32 52 38 31 30 28 25 21 17 10 9 9 6 5 7 6 16 22 24 28 31 19 17 19 19 22 25
10 8 4 10 8 12 29 28 30 33 36 39 45 40 29 21 12 9 8 11 15 26 37 55 38 34 30 28 25 18 14 13 9 6 5 5 11 12 12 20 31 28 23 12 16 16 14 23 30
14 13 6 8 20 27 25 29 32 33 36 36 42 38 30 20 9 7 7 8 15 21 32 46 42 33 29 27 25 21 15 18 9 10 7 10 14 8 14 24 25 25 9 7 15 22 19 20 27
15 12 6 4 6 3 18 31 25 30 33 32 37 37 32 22 14 8 9 10 12 16 27 38 42 34 33 27 25 21 19 9 9 4 9 12 8 14 21 25 26 18 6 11 20 21 23 23 30
17 12 10 8 6 12 27 19 26 30 29 28 31 35 29 18 15 15 12 14 12 16 25 32 37 40 36 32 28 24 18 18 15 11 10 8 10 18 23 18 23 13 12 20 22 24 29 27 31
22 17 13 16 13 6 32 36 25 24 27 26 22 30 28 20 7 12 13 20 18 14 21 24 27 36 40 35 26 21 23 15 17 10 14 7 9 19 18 21 18 17 8 12 20 25 25 30 33
26 24 20 19 19 21 26 27 24 21 20 22 19 23 28 19 15 5 11 16 17 16 17 19 24 31 37 31 22 18 15 20 22 18 15 8 16 12 16 22 12 14 19 13 23 20 26 31 30
21 31 26 22 18 11 19 22 21 23 19 22 15 19 24 26 16 8 7 16 14 17 20 16 13 23 32 31 23 28 28 11 21 19 15 17 14 10 12 14 14 10 17 13 17 20 22 28 27
19 27 29 27 24 20 14 18 19 19 16 14 15 15 18 25 17 12 5 14 17 17 23 21 20 25 31 35 22 32 30 31 23 17 20 16 12 11 14 11 16 14 7 10 14 17 16 19 28
37 32 31 31 29 27 32 27 22 29 20 9 15 16 13 17 23 11 9 7 18 17 21 24 26 30 33 38 26 18 19 30 27 21 20 15 10 7 7 3 5 8 5 12 13 19 19 21 25
27 29 31 32 28 31 29 26 23 22 13 14 10 19 14 12 17 18 9 8 11 19 19 24 27 32 33 35 34 22 23 17 16 15 12 11 10 6 6 10 2 7 10 15 18 22 17 24 21
16 21 28 32 31 32 29 24 18 21 23 19 14 19 19 11 12 13 9 7 9 10 19 24 31 32 32 30 33 40 29 28 19 17 11 9 7 7 5 9 4 8 13 15 14 23 6 13 15
13 22 24 31 34 33 30 25 21 26 25 25 13 20 20 14 11 11 10 3 8 9 9 14 28 40 36 34 36 33 28 27 23 27 20 14 10 10 8 7 6 6 7 12 11 14 14 13 14
19 23 21 29 31 37 32 25 29 27 25 24 15 19 15 15 12 9 12 6 6 6 5 8 13 35 43 39 37 36 33 28 30 34 28 21 15 10 9 9 9 10 6 7 9 11 14 18 19
30 25 26 28 34 35 39 33 27 25 31 28 24 26 17 21 17 8 7 11 3 8 7 6 7 13 30 40 44 43 41 38 38 36 33 27 22 16 14 12 14 13 7 7 8 8 9 16 17
33 24 28 23 34 29 27 40 37 37 30 28 28 28 22 22 25 12 9 9 6 4 9 10 11 10 15 30 35 31 36 37 33 34 27 24 22 16 15 15 18 15 11 11 10 6 10 10 15
31 19 31 28 29 36 28 28 32 40 39 31 31 26 24 20 22 18 11 7 7 10 7 12 15 15 14 16 22 27 28 30 32 31 31 25 21 17 18 20 19 15 13 10 6 6 8 10 9
49 32 26 24 27 31 31 27 44 17 40 39 34 35 32 28 26 23 14 10 9 7 8 13 16 18 18 18 19 18 23 13 30 28 26 23 19 18 19 19 19 20 12 7 9 9 7 8 6
47 46 45 34 34 32 29 27 42 18 16 36 48 46 41 38 33 27 20 16 12 6 6 9 18 19 21 25 22 26 27 28 30 28 24 19 20 20 19 19 18 17 15 7 5 5 4 5 6
50 51 47 43 41 39 37 25 49 21 9 13 22 43 43 39 35 30 29 25 19 12 7 8 13 21 23 25 28 25 26 25 23 21 25 26 22 22 21 17 16 16 12 14 9 7 10 10 10
48 52 51 48 45 44 44 43 45 43 41 33 23 28 33 42 40 33 27 28 27 17 11 10 10 13 21 26 29 32 31 30 28 28 26 19 20 21 22 22 17 16 14 13 10 11 9 10 11
40 44 48 49 49 47 51 51 48 45 50 48 41 38 33 29 39 39 34 32 32 31 24 16 12 14 14 19 24 28 30 30 31 32 27 24 21 14 15 23 22 16 13 11 14 12 15 16 16
37 42 47 47 49 49 55 49 51 48 51 50 45 41 38 35 33 39 40 35 37 35 31 26 20 15 11 15 19 22 26 29 32 33 31 28 22 17 19 21 16 9 8 10 13 10 12 16 19
32 34 40 43 46 50 54 53 54 50 50 50 46 45 42 41 37 36 37 38 42 40 36 30 28 22 19 18 20 19 23 25 24 27 27 23 28 24 20 15 12 9 9 8 9 8 10 11 16
29 32 35 38 42 42 43 49 49 49 52 53 51 48 46 44 43 41 39 42 39 44 39 32 34 29 26 20 17 18 18 21 21 23 23 21 24 26 25 20 15 11 5 4 7 6 9 7 13
27 30 32 34 36 40 42 38 42 42 45 45 49 49 49 49 48 46 46 43 43 40 43 38 37 38 33 26 16 21 20 17 15 18 22 24 24 23 22 23 16 10 4 5 9 10 16 12 15
Wind_Direction
131 103 350 332 20 315 330 334 347 346 346 350 345 341 334 295 253 224 231 235 222 183 196 210 206 199 195 199 201 212 228 242 240 262 288 325 1 7 336 321 327 333 333 331 330 326 318 323 326
186 189 322 333 14 305 282 317 347 352 351 345 345 345 341 323 255 223 216 208 204 189 191 206 199 196 189 194 192 203 207 219 193 264 310 344 11 1 329 322 325 321 327 325 325 326 324 331 344
186 223 344 344 297 278 304 328 334 352 350 347 346 347 349 343 237 216 218 218 193 198 194 192 197 198 190 186 189 190 207 191 261 269 269 34 3 1 351 303 308 321 320 322 326 332 324 334 347
167 34 326 338 277 298 318 333 336 359 350 349 347 351 358 357 302 207 215 218 205 194 192 187 190 196 189 186 193 194 205 230 248 255 258 20 5 305 298 308 316 321 322 330 348 350 344 349 340
209 201 200 358 283 289 331 328 334 349 353 355 354 356 2 15 44 174 210 215 195 176 203 199 182 193 191 191 195 202 207 188 184 225 196 263 263 320 298 316 330 329 327 351 5 347 359 357 354
225 245 322 298 258 308 328 322 332 347 351 357 359 3 5 19 53 88 142 190 182 184 193 200 174 188 192 187 193 189 172 188 154 216 217 311 290 273 315 338 337 324 331 11 2 7 357 357 1
228 248 243 285 164 286 303 324 328 336 338 355 0 5 15 26 36 62 110 156 167 188 191 189 176 187 184 192 187 178 179 168 191 249 293 292 271 293 317 329 329 328 352 355 349 349 350 352 4
241 239 254 243 306 96 277 310 322 329 333 352 1 7 15 23 47 68 113 126 149 177 187 183 166 184 185 175 180 180 179 157 184 166 245 253 271 298 314 317 315 329 1 348 356 345 359 15 3
248 242 234 226 199 185 262 297 302 310 321 350 358 6 18 21 51 67 99 115 134 164 185 190 178 180 187 185 180 171 157 199 215 210 235 252 261 290 304 312 346 360 357 351 351 353 10 7 358
250 243 230 225 211 218 242 267 280 303 322 341 359 8 19 23 39 84 106 118 118 131 171 181 190 172 185 188 177 186 192 210 212 229 212 205 276 308 321 328 359 10 7 349 348 13 12 3 356
247 240 230 227 221 233 244 249 267 279 320 327 353 14 16 25 37 84 124 126 132 142 153 168 175 180 173 178 175 183 201 214 201 233 240 233 291 315 333 359 17 30 19 342 17 343 6 358 347
252 232 229 231 229 280 244 223 249 281 300 312 342 13 17 21 39 59 163 157 149 153 152 152 178 183 182 187 175 166 191 150 195 231 242 272 293 328 345 39 70 358 28 36 351 334 360 351 352
257 237 234 228 225 206 214 267 272 292 262 303 328 360 18 18 36 43 101 186 169 170 170 169 199 197 183 181 170 176 202 222 232 235 254 265 283 333 318 66 91 110 25 5 6 11 353 347 2
232 238 232 231 220 226 230 256 281 273 257 271 316 348 6 19 17 46 60 153 189 179 187 192 194 196 192 187 197 199 208 223 228 233 246 255 272 322 345 33 79 91 66 21 28 13 338 344 348
238 232 229 228 219 218 219 234 259 254 227 274 289 318 335 1 6 20 73 88 166 199 203 201 203 209 207 207 203 195 218 213 213 223 222 240 251 301 346 334 341 352 20 39 32 22 357 352 348
248 243 226 223 221 217 217 222 239 253 258 273 255 302 313 339 3 8 27 115 127 171 199 211 211 214 217 217 214 215 215 220 219 221 237 255 254 297 298 325 340 9 14 21 27 43 49 331 349
227 235 233 219 219 214 209 215 219 238 273 261 238 288 291 315 345 351 7 121 146 150 171 207 215 215 215 217 213 216 207 221 223 229 236 257 261 300 290 344 332 4 357 11 341 30 17 359 346
226 222 229 218 216 210 198 201 210 235 245 249 253 285 270 309 318 336 342 360 180 167 174 169 203 211 217 220 215 212 218 223 227 231 234 251 269 291 292 305 328 349 322 348 360 7 359 4 345
198 236 248 219 216 213 206 203 209 221 234 244 261 274 266 290 296 305 313 342 231 195 189 180 172 201 208 216 221 224 231 234 235 243 237 249 261 275 292 290 299 324 306 265 290 323 338 3 354
227 227 227 216 218 210 224 223 222 230 239 236 250 258 237 267 285 290 282 318 341 239 207 195 176 173 204 210 216 220 223 228 239 238 240 252 254 274 281 272 286 310 306 263 263 302 335 344 357
208 197 204 208 211 207 194 218 211 236 228 243 232 247 249 249 269 280 260 282 313 344 237 209 196 186 185 195 214 221 224 223 228 238 240 241 260 270 275 274 275 305 321 293 261 308 314 330 349
217 204 215 210 216 214 215 214 208 240 234 239 239 225 245 243 257 270 241 247 276 325 325 224 210 197 196 190 193 195 205 194 221 227 233 244 258 270 270 281 290 301 311 253 291 304 290 305 317
220 228 231 227 222 219 207 208 215 242 237 253 254 239 237 238 254 255 248 235 259 276 305 249 220 213 204 205 208 199 209 216 222 230 238 252 252 258 259 271 297 307 314 294 284 276 291 271 292
220 225 228 227 223 222 214 202 212 190 143 258 239 237 233 238 246 243 224 241 241 246 254 284 235 222 219 214 217 224 218 222 230 234 244 253 254 252 255 271 285 302 297 237 277 263 289 263 262
224 224 226 227 225 222 225 222 204 212 166 203 258 245 239 238 236 230 235 240 242 238 240 244 267 242 229 228 225 223 228 230 236 239 238 242 241 255 268 275 272 278 279 261 273 248 250 254 243
225 226 230 231 230 225 236 227 222 220 231 234 249 248 244 236 230 222 226 240 246 246 252 242 249 256 245 241 236 236 232 234 237 237 237 244 240 280 269 273 280 274 274 267 269 260 238 230 231
225 224 226 228 233 232 237 235 230 226 235 240 243 243 243 242 233 234 232 231 238 244 251 247 244 248 267 270 249 241 240 241 245 249 247 240 240 249 277 270 263 267 287 278 276 272 261 241 235
228 229 229 229 231 234 236 235 236 237 238 241 239 242 242 242 239 234 231 230 229 240 250 249 245 237 255 282 273 261 246 241 244 246 247 231 231 229 229 284 274 247 258 265 265 266 256 239 229
229 228 230 231 232 235 237 237 241 240 243 241 243 241 241 239 239 240 236 228 228 230 242 252 255 240 237 250 272 277 258 247 240 243 239 227 233 231 237 247 244 238 231 240 234 217 205 199 199
231 230 231 231 234 237 242 241 240 240 243 244 242 242 240 241 239 236 237 236 232 225 227 223 237 231 237 246 252 283 271 262 250 234 234 233 218 225 236 222 231 226 227 228 208 195 187 191 219
Height
10983 10983 10983 10984 10983 10981 10981 10979 10978 10974 10967 10961 10954 10942 10935 10928 10924 10925 10923 10925 10932 10937 10945 10952 10960 10966 10971 10977 10982 10985 10987 10989 10993 10994 10994 10994 10994 10994 10994 10993 10992 10990 10987 10984 10981 10976 10974 10976 10973
10983 10984 10985 10986 10987 10985 10981 10981 10979 10972 10964 10958 10950 10934 10928 10923 10919 10919 10920 10923 10927 10933 10941 10950 10956 10964 10969 10975 10980 10983 10986 10989 10991 10991 10992 10992 10993 10994 10993 10993 10992 10991 10988 10984 10980 10976 10977 10973 10972
10984 10986 10988 10989 10989 10987 10983 10981 10977 10970 10964 10957 10946 10934 10924 10917 10916 10916 10918 10921 10928 10933 10940 10949 10955 10961 10967 10973 10978 10982 10986 10988 10989 10990 10991 10992 10994 10994 10994 10993 10992 10992 10989 10986 10981 10977 10976 10973 10970
10984 10989 10985 10991 10987 10983 10980 10978 10973 10970 10964 10956 10946 10934 10923 10915 10913 10915 10918 10921 10929 10934 10945 10949 10954 10960 10966 10972 10977 10981 10985 10988 10989 10988 10990 10992 10993 10995 10994 10994 10995 10994 10990 10988 10982 10978 10976 10973 10968
10985 10988 10989 10985 10981 10981 10978 10976 10973 10970 10965 10957 10946 10935 10924 10918 10914 10915 10918 10923 10926 10937 10936 10947 10952 10959 10966 10971 10976 10981 10986 10987 10989 10990 10991 10994 10996 10996 10995 10998 10997 10993 10989 10984 10979 10977 10975 10971 10966
10982 10984 10986 10983 10977 10976 10975 10975 10972 10970 10967 10961 10950 10939 10928 10922 10919 10919 10920 10922 10925 10929 10937 10940 10951 10959 10965 10970 10976 10982 10985 10986 10989 10991 10994 10996 10997 10997 10999 10998 10994 10987 10982 10980 10976 10975 10972 10968 10964
10979 10980 10983 10984 10983 10978 10975 10975 10972 10971 10968 10964 10953 10943 10934 10926 10924 10923 10923 10924 10925 10927 10932 10940 10952 10958 10965 10970 10976 10980 10983 10987 10989 10992 10994 10997 10998 10999 10999 10995 10988 10983 10980 10979 10976 10975 10970 10965 10961
10976 10979 10981 10983 10987 10977 10969 10975 10971 10972 10971 10966 10957 10949 10938 10931 10928 10927 10926 10927 10928 10930 10934 10942 10951 10959 10965 10969 10974 10978 10982 10986 10988 10991 10994 10997 10998 10999 10997 10993 10986 10985 10982 10979 10980 10976 10972 10966 10962
10974 10977 10978 10981 10984 10991 10978 10973 10969 10973 10972 10968 10962 10953 10944 10938 10934 10931 10931 10931 10934 10935 10938 10944 10951 10960 10964 10968 10971 10976 10980 10984 10986 10991 10994 10996 10998 10999 10996 10991 10989 10989 10990 10993 10987 10980 10973 10969 10965
10972 10975 10975 10975 10977 10976 10975 10971 10971 10972 10971 10969 10965 10957 10950 10944 10940 10937 10937 10937 10938 10940 10943 10947 10953 10959 10963 10967 10972 10975 10979 10983 10987 10993 10993 10995 10997 10999 10995 10993 10993 10993 10995 10987 10980 10977 10971 10970 10967
10966 10970 10970 10972 10973 10973 10970 10969 10969 10969 10970 10967 10966 10961 10954 10948 10943 10941 10941 10942 10943 10944 10947 10951 10955 10959 10962 10966 10972 10977 10980 10982 10987 10991 10993 10995 10997 10999 10995 10998 10996 10995 10989 10981 10975 10978 10975 10974 10973
10958 10961 10963 10968 10970 10970 10960 10963 10964 10966 10968 10966 10966 10962 10957 10953 10948 10944 10944 10945 10946 10948 10950 10954 10958 10960 10963 10967 10971 10976 10980 10982 10988 10990 10993 10996 10999 10999 10998 11000 10994 10981 10977 10978 10982 10981 10981 10978 10979
10954 10956 10957 10962 10966 10971 10958 10960 10962 10963 10964 10966 10965 10963 10959 10955 10951 10948 10946 10947 10948 10951 10953 10956 10959 10961 10962 10967 10974 10977 10979 10981 10986 10989 10993 10995 10999 11001 11000 11000 10996 10996 10995 10991 10987 10987 10988 10991 10981
10945 10949 10951 10954 10961 10963 10962 10959 10959 10961 10960 10964 10963 10963 10960 10957 10954 10952 10949 10948 10950 10952 10954 10957 10960 10961 10964 10968 10973 10976 10980 10981 10985 10988 10991 10996 11001 11004 11001 10998 10998 10999 11002 10997 10996 10997 11003 10998 10984
10940 10944 10947 10949 10954 10958 10960 10962 10960 10957 10957 10961 10962 10961 10961 10959 10956 10954 10951 10949 10950 10952 10954 10957 10959 10962 10964 10967 10973 10977 10978 10980 10984 10987 10991 10996 11001 11005 11004 10999 10994 10995 10999 11001 11002 11011 10970 10998 10984
10937 10941 10941 10943 10948 10951 10956 10957 10958 10954 10954 10957 10959 10961 10959 10958 10956 10954 10952 10950 10950 10950 10952 10954 10957 10959 10963 10967 10969 10972 10976 10979 10983 10987 10990 10995 11000 11005 11006 11005 11003 11001 11003 11001 10998 11005 10995 10996 10982
10931 10936 10936 10937 10941 10945 10950 10953 10955 10950 10950 10953 10955 10959 10958 10957 10957 10956 10953 10951 10951 10950 10951 10952 10954 10956 10960 10964 10968 10971 10975 10980 10984 10987 10990 10994 10999 11003 11006 11009 11011 11013 11011 11003 10990 10993 10995 10993 10984
10920 10924 10929 10933 10936 10938 10943 10946 10948 10948 10947 10950 10952 10956 10956 10955 10957 10957 10954 10953 10950 10950 10950 10951 10951 10954 10957 10962 10965 10971 10974 10980 10982 10984 10988 10992 10997 10999 11003 11007 11009 11010 11009 11003 10998 10997 10994 10993 10986
10907 10917 10922 10925 10931 10936 10939 10941 10941 10942 10944 10946 10949 10953 10955 10954 10956 10956 10955 10953 10951 10950 10950 10950 10951 10952 10955 10959 10964 10970 10972 10976 10981 10983 10986 10990 10994 10998 11001 11001 10999 10999 11000 10986 11000 10999 10989 10986 10981
10907 10909 10917 10920 10929 10935 10942 10938 10941 10941 10940 10942 10946 10946 10950 10953 10952 10954 10954 10953 10952 10950 10950 10950 10952 10952 10953 10956 10961 10966 10969 10975 10978 10981 10985 10988 10993 10997 10997 10993 10992 10992 10992 10991 10995 10991 10984 10981 10982
10903 10905 10912 10915 10921 10929 10941 10933 10939 10936 10938 10939 10942 10944 10946 10948 10949 10951 10952 10953 10952 10951 10950 10951 10952 10952 10954 10956 10959 10963 10967 10972 10977 10978 10983 10987 10991 10995 10992 10988 10987 10990 10990 10987 10990 10987 10983 10978 10980
10894 10903 10905 10910 10913 10917 10921 10925 10929 10923 10928 10934 10939 10940 10941 10942 10946 10946 10950 10951 10951 10951 10951 10951 10952 10953 10955 10957 10959 10963 10966 10973 10974 10977 10981 10985 10990 10992 10989 10984 10988 10990 10988 10987 10988 10986 10981 10978 10977
10889 10893 10896 10901 10904 10910 10914 10921 10922 10926 10927 10936 10932 10935 10938 10941 10940 10943 10947 10949 10950 10950 10949 10949 10951 10953 10955 10956 10957 10961 10965 10968 10971 10975 10979 10982 10986 10986 10982 10980 10984 10986 10988 10988 10987 10983 10977 10976 10978
10876 10877 10884 10890 10897 10902 10908 10905 10914 10923 10925 10923 10908 10923 10930 10935 10937 10939 10945 10945 10947 10947 10946 10946 10948 10950 10953 10955 10956 10958 10961 10965 10967 10971 10974 10977 10981 10981 10978 10977 10980 10981 10983 10985 10984 10979 10973 10971 10976
10866 10872 10876 10882 10888 10892 10897 10900 10909 10918 10915 10899 10905 10917 10924 10928 10931 10935 10938 10940 10941 10943 10943 10943 10945 10946 10949 10952 10955 10956 10959 10961 10966 10966 10969 10975 10976 10977 10976 10974 10977 10977 10980 10982 10985 10982 10976 10974 10977
10858 10864 10869 10873 10877 10884 10884 10887 10898 10905 10907 10910 10911 10914 10917 10920 10923 10928 10933 10934 10935 10938 10940 10942 10941 10943 10944 10948 10951 10954 10957 10959 10961 10961 10966 10968 10971 10975 10970 10968 10968 10975 10976 10980 10983 10984 10980 10979 10980
10851 10853 10857 10864 10867 10876 10872 10881 10887 10895 10897 10901 10906 10907 10910 10913 10916 10919 10925 10929 10929 10931 10935 10938 10940 10942 10942 10945 10947 10949 10951 10955 10956 10956 10959 10963 10967 10970 10969 10967 10965 10967 10967 10972 10975 10976 10978 10980 10981
10845 10849 10851 10856 10858 10860 10864 10871 10873 10883 10887 10889 10895 10897 10900 10903 10908 10912 10916 10921 10923 10926 10931 10936 10940 10940 10941 10942 10944 10944 10946 10949 10950 10949 10950 10958 10961 10964 10969 10967 10967 10967 10968 10970 10973 10977 10979 10979 10979
10838 10841 10844 10847 10850 10854 10855 10858 10865 10873 10874 10878 10881 10887 10891 10895 10899 10904 10908 10913 10917 10923 10929 10932 10935 10941 10939 10938 10940 10940 10941 10942 10944 10944 10943 10948 10952 10957 10961 10962 10966 10970 10969 10972 10975 10976 10973 10974 10973
10830 10834 10837 10839 10843 10844 10846 10855 10853 10859 10862 10869 10871 10875 10881 10883 10889 10894 10898 10903 10909 10917 10924 10907 10919 10936 10935 10935 10935 10935 10936 10938 10939 10941 10941 10943 10947 10951 10954 10959 10963 10965 10967 10971 10974 10970 10964 10966 10968